Skip Page Navigation
NASA JPL Caltech
NASA Logo - Jet Propulsion Laboratory + View the NASA Portal
+ Center for Near-Earth Object Studies
JPL Home Earth Solar System Stars & Galaxies Technology
JPL Solar System Dynamics
BODIES ORBITS EPHEMERIDES TOOLS PHYSICAL DATA DISCOVERY FAQ SITE MAP
IMPORTANT: The SSD Announcement email list is now available. Major changes are coming in the near future, including possible hostname and/or URL changes. To be notified of such changes, subscribe to this email list.

Please visit this page for more details.


JPL Small-Body Database Browser
Search: [ help ]  
268819 (2006 VH75)
Classification: Main-belt Asteroid          SPK-ID: 2268819
Ephemeris | Orbit Diagram | Orbital Elements | Mission Design | Physical Parameters | Discovery Circumstances | Close-Approach Data ]

[ show orbit diagram ]
Orbital Elements at Epoch 2458600.5 (2019-Apr-27.0) TDB
Reference: JPL 15 (heliocentric ecliptic J2000)
 Element Value Uncertainty (1-sigma)   Units 
e .1167411829409157 5.343e-08  
a 2.332185966031186 1.844e-08 au
q 2.059923817518503 1.3295e-07 au
i 5.618193391586715 4.8705e-06 deg
node 264.0552848116201 5.3968e-05 deg
peri 117.6799459912395 5.996e-05 deg
M 219.4324034442815 3.0431e-05 deg
tp 2459108.455786249712
(2020-Sep-15.95578625)
0.00011396 TDB
period 1300.897842252088
3.56
1.5429e-05
4.224e-08
d
yr
n .2767319525849742 3.282e-09 deg/d
Q 2.604448114543869 2.0593e-08 au
  Orbit Determination Parameters
   # obs. used (total)      284  
   data-arc span      6191 days (16.95 yr)  
   first obs. used      2002-08-16  
   last obs. used      2019-07-29  
   planetary ephem.      DE431  
   SB-pert. ephem.      SB431-N16  
   condition code      0  
   norm. resid. RMS      .63324  
   source      ORB  
   producer      Otto Matic  
   solution date      2019-Sep-24 04:38:52  

Additional Information
 Earth MOID = 1.06967 au 
 Jupiter MOID = 2.83889 au 
 T_jup = 3.555 
[ show covariance matrix ]

Ephemeris | Orbit Diagram | Orbital Elements | Mission Design | Physical Parameters | Discovery Circumstances | Close-Approach Data ]

Physical Parameter Table
Parameter Symbol Value Units Sigma Reference Notes
absolute magnitude H 16.7   n/a MPO476136  

268819 (2006 VH75)          Discovered 2006-Nov-11 by Spacewatch at Kitt Peak
Reference: 20110319/Numbers.arcLast Updated: 2011-03-23

[ show close-approach data ]
Ephemeris | Orbit Diagram | Orbital Elements | Mission Design | Physical Parameters | Discovery Circumstances | Close-Approach Data ]
ABOUT SSD CREDITS/AWARDS PRIVACY/COPYRIGHT GLOSSARY LINKS
FirstGov 2020-Jan-21 00:23 UT
(server date/time)  
NASA Home Page
Site Manager:   Ryan S. Park
Webmaster  Alan B. Chamberlin